Year,Month,Day,Hour,Minute,Value (Times are PST for temperature in C)
2014,08,23,00,00,13.70
2014,08,23,00,01,13.70
2014,08,23,00,02,13.70
2014,08,23,00,03,13.70
2014,08,23,00,04,13.70
2014,08,23,00,05,13.70
2014,08,23,00,06,13.60
2014,08,23,00,07,13.60
2014,08,23,00,08,13.60
2014,08,23,00,09,13.60
2014,08,23,00,10,13.60
2014,08,23,00,11,13.60
2014,08,23,00,12,13.60
2014,08,23,00,13,13.50
2014,08,23,00,14,13.50
2014,08,23,00,15,13.50
2014,08,23,00,16,13.50
2014,08,23,00,17,13.50
2014,08,23,00,18,13.50
2014,08,23,00,19,13.50
2014,08,23,00,20,13.50
2014,08,23,00,21,13.50
2014,08,23,00,22,13.50
2014,08,23,00,23,13.40
2014,08,23,00,24,13.40
2014,08,23,00,25,13.40
2014,08,23,00,26,13.40
2014,08,23,00,27,13.50
2014,08,23,00,28,13.50
2014,08,23,00,29,13.50
2014,08,23,00,30,13.50
2014,08,23,00,31,13.50
2014,08,23,00,32,13.50
2014,08,23,00,33,13.50
2014,08,23,00,34,13.50
2014,08,23,00,35,13.50
2014,08,23,00,36,13.50
2014,08,23,00,37,13.50
2014,08,23,00,38,13.50
2014,08,23,00,39,13.50
2014,08,23,00,40,13.50
2014,08,23,00,41,13.50
2014,08,23,00,42,13.50
2014,08,23,00,43,13.50
2014,08,23,00,44,13.50
2014,08,23,00,45,13.50
2014,08,23,00,46,13.50
2014,08,23,00,47,13.50
2014,08,23,00,48,13.50
2014,08,23,00,49,13.50
2014,08,23,00,50,13.40
2014,08,23,00,51,13.40
2014,08,23,00,52,13.40
2014,08,23,00,53,13.40
2014,08,23,00,54,13.40
2014,08,23,00,55,13.40
2014,08,23,00,56,13.30
2014,08,23,00,57,13.30
2014,08,23,00,58,13.30
2014,08,23,00,59,13.30
2014,08,23,01,00,13.30
2014,08,23,01,01,13.30
2014,08,23,01,02,13.30
2014,08,23,01,03,13.30
2014,08,23,01,04,13.30
2014,08,23,01,05,13.20
2014,08,23,01,06,13.20
2014,08,23,01,07,13.20
2014,08,23,01,08,13.10
2014,08,23,01,09,13.10
2014,08,23,01,10,13.10
2014,08,23,01,11,13.00
2014,08,23,01,12,13.00
2014,08,23,01,13,13.00
2014,08,23,01,14,13.00
2014,08,23,01,15,13.00
2014,08,23,01,16,12.90
2014,08,23,01,17,12.90
2014,08,23,01,18,12.90
2014,08,23,01,19,12.90
2014,08,23,01,20,12.90
2014,08,23,01,21,12.90
2014,08,23,01,22,12.90
2014,08,23,01,23,12.90
2014,08,23,01,24,12.90
2014,08,23,01,25,12.80
2014,08,23,01,26,12.80
2014,08,23,01,27,12.80
2014,08,23,01,28,12.80
2014,08,23,01,29,12.80
2014,08,23,01,30,12.80
2014,08,23,01,31,12.80
2014,08,23,01,32,12.80
2014,08,23,01,33,12.80
2014,08,23,01,34,12.80
2014,08,23,01,35,12.80
2014,08,23,01,36,12.80
2014,08,23,01,37,12.80
2014,08,23,01,38,12.70
2014,08,23,01,39,12.70
2014,08,23,01,40,12.70
2014,08,23,01,41,12.70
2014,08,23,01,42,12.70
2014,08,23,01,43,12.70
2014,08,23,01,44,12.70
2014,08,23,01,45,12.70
2014,08,23,01,46,12.70
2014,08,23,01,47,12.70
2014,08,23,01,48,12.70
2014,08,23,01,49,12.70
2014,08,23,01,50,12.70
2014,08,23,01,51,12.70
2014,08,23,01,52,12.70
2014,08,23,01,53,12.70
2014,08,23,01,54,12.70
2014,08,23,01,55,12.70
2014,08,23,01,56,12.70
2014,08,23,01,57,12.60
2014,08,23,01,58,12.60
2014,08,23,01,59,12.60
2014,08,23,02,00,12.60
2014,08,23,02,01,12.60
2014,08,23,02,02,12.50
2014,08,23,02,03,12.50
2014,08,23,02,04,12.50
2014,08,23,02,05,12.50
2014,08,23,02,06,12.40
2014,08,23,02,07,12.40
2014,08,23,02,08,12.40
2014,08,23,02,09,12.30
2014,08,23,02,10,12.30
2014,08,23,02,11,12.30
2014,08,23,02,12,12.30
2014,08,23,02,13,12.30
2014,08,23,02,14,12.30
2014,08,23,02,15,12.30
2014,08,23,02,16,12.30
2014,08,23,02,17,12.30
2014,08,23,02,18,12.30
2014,08,23,02,19,12.30
2014,08,23,02,20,12.30
2014,08,23,02,21,12.30
2014,08,23,02,22,12.30
2014,08,23,02,23,12.30
2014,08,23,02,24,12.30
2014,08,23,02,25,12.30
2014,08,23,02,26,12.30
2014,08,23,02,27,12.30
2014,08,23,02,28,12.30
2014,08,23,02,29,12.30
2014,08,23,02,30,12.30
2014,08,23,02,31,12.30
2014,08,23,02,32,12.30
2014,08,23,02,33,12.30
2014,08,23,02,34,12.30
2014,08,23,02,35,12.30
2014,08,23,02,36,12.30
2014,08,23,02,37,12.30
2014,08,23,02,38,12.30
2014,08,23,02,39,12.30
2014,08,23,02,40,12.30
2014,08,23,02,41,12.30
2014,08,23,02,42,12.30
2014,08,23,02,43,12.30
2014,08,23,02,44,12.30
2014,08,23,02,45,12.30
2014,08,23,02,46,12.20
2014,08,23,02,47,12.20
2014,08,23,02,48,12.20
2014,08,23,02,49,12.20
2014,08,23,02,50,12.10
2014,08,23,02,51,12.10
2014,08,23,02,52,12.10
2014,08,23,02,53,12.10
2014,08,23,02,54,12.00
2014,08,23,02,55,12.00
2014,08,23,02,56,12.00
2014,08,23,02,57,12.00
2014,08,23,02,58,12.00
2014,08,23,02,59,11.90
2014,08,23,03,00,11.90
2014,08,23,03,01,11.90
2014,08,23,03,02,11.90
2014,08,23,03,03,11.90
2014,08,23,03,04,11.90
2014,08,23,03,05,11.90
2014,08,23,03,06,11.90
2014,08,23,03,07,12.00
2014,08,23,03,08,12.00
2014,08,23,03,09,12.00
2014,08,23,03,10,12.00
2014,08,23,03,11,12.00
2014,08,23,03,12,12.00
2014,08,23,03,13,12.00
2014,08,23,03,14,12.00
2014,08,23,03,15,12.00
2014,08,23,03,16,12.00
2014,08,23,03,17,12.00
2014,08,23,03,18,12.00
2014,08,23,03,19,12.00
2014,08,23,03,20,12.00
2014,08,23,03,21,12.00
2014,08,23,03,22,12.00
2014,08,23,03,23,11.90
2014,08,23,03,24,11.90
2014,08,23,03,25,11.90
2014,08,23,03,26,11.90
2014,08,23,03,27,11.90
2014,08,23,03,28,11.90
2014,08,23,03,29,11.90
2014,08,23,03,30,11.90
2014,08,23,03,31,11.90
2014,08,23,03,32,11.90
2014,08,23,03,33,11.90
2014,08,23,03,34,11.90
2014,08,23,03,35,11.90
2014,08,23,03,36,11.90
2014,08,23,03,37,11.90
2014,08,23,03,38,11.90
2014,08,23,03,39,11.90
2014,08,23,03,40,11.90
2014,08,23,03,41,11.90
2014,08,23,03,42,11.90
2014,08,23,03,43,11.90
2014,08,23,03,44,11.90
2014,08,23,03,45,11.90
2014,08,23,03,46,11.90
2014,08,23,03,47,11.90
2014,08,23,03,48,11.90
2014,08,23,03,49,11.90
2014,08,23,03,50,11.80
2014,08,23,03,51,11.80
2014,08,23,03,52,11.80
2014,08,23,03,53,11.80
2014,08,23,03,54,11.80
2014,08,23,03,55,11.80
2014,08,23,03,56,11.80
2014,08,23,03,57,11.80
2014,08,23,03,58,11.80
2014,08,23,03,59,11.80
2014,08,23,04,00,11.80
2014,08,23,04,01,11.80
2014,08,23,04,02,11.80
2014,08,23,04,03,11.80
2014,08,23,04,04,11.80
2014,08,23,04,05,11.80
2014,08,23,04,06,11.80
2014,08,23,04,07,11.80
2014,08,23,04,08,11.80
2014,08,23,04,09,11.80
2014,08,23,04,10,11.80
2014,08,23,04,11,11.80
2014,08,23,04,12,11.70
2014,08,23,04,13,11.70
2014,08,23,04,14,11.70
2014,08,23,04,15,11.70
2014,08,23,04,16,11.60
2014,08,23,04,17,11.60
2014,08,23,04,18,11.60
2014,08,23,04,19,11.60
2014,08,23,04,20,11.60
2014,08,23,04,21,11.60
2014,08,23,04,22,11.60
2014,08,23,04,23,11.60
2014,08,23,04,24,11.60
2014,08,23,04,25,11.60
2014,08,23,04,26,11.60
2014,08,23,04,27,11.60
2014,08,23,04,28,11.60
2014,08,23,04,29,11.60
2014,08,23,04,30,11.60
2014,08,23,04,31,11.60
2014,08,23,04,32,11.60
2014,08,23,04,33,11.60
2014,08,23,04,34,11.60
2014,08,23,04,35,11.60
2014,08,23,04,36,11.60
2014,08,23,04,37,11.60
2014,08,23,04,38,11.60
2014,08,23,04,39,11.60
2014,08,23,04,40,11.60
2014,08,23,04,41,11.60
2014,08,23,04,42,11.60
2014,08,23,04,43,11.60
2014,08,23,04,44,11.60
2014,08,23,04,45,11.60
2014,08,23,04,46,11.40
2014,08,23,04,47,11.40
2014,08,23,04,48,11.40
2014,08,23,04,49,11.40
2014,08,23,04,50,11.40
2014,08,23,04,51,11.40
2014,08,23,04,52,11.40
2014,08,23,04,53,11.40
2014,08,23,04,54,11.40
2014,08,23,04,55,11.40
2014,08,23,04,56,11.40
2014,08,23,04,57,11.40
2014,08,23,04,58,11.40
2014,08,23,04,59,11.40
2014,08,23,05,00,11.40
2014,08,23,05,01,11.40
2014,08,23,05,02,11.40
2014,08,23,05,03,11.40
2014,08,23,05,04,11.40
2014,08,23,05,05,11.30
2014,08,23,05,06,11.30
2014,08,23,05,07,11.30
2014,08,23,05,08,11.30
2014,08,23,05,09,11.30
2014,08,23,05,10,11.20
2014,08,23,05,11,11.20
2014,08,23,05,12,11.20
2014,08,23,05,13,11.20
2014,08,23,05,14,11.20
2014,08,23,05,15,11.20
2014,08,23,05,16,11.20
2014,08,23,05,17,11.20
2014,08,23,05,18,11.20
2014,08,23,05,19,11.20
2014,08,23,05,20,11.10
2014,08,23,05,21,11.10
2014,08,23,05,22,11.10
2014,08,23,05,23,11.10
2014,08,23,05,24,11.10
2014,08,23,05,25,11.10
2014,08,23,05,26,11.10
2014,08,23,05,27,11.10
2014,08,23,05,28,11.10
2014,08,23,05,29,11.10
2014,08,23,05,30,11.10
2014,08,23,05,31,11.10
2014,08,23,05,32,11.10
2014,08,23,05,33,11.00
2014,08,23,05,34,10.90
2014,08,23,05,35,10.90
2014,08,23,05,36,10.90
2014,08,23,05,37,10.90
2014,08,23,05,38,10.90
2014,08,23,05,39,10.90
2014,08,23,05,40,10.90
2014,08,23,05,41,10.90
2014,08,23,05,42,10.90
2014,08,23,05,43,10.90
2014,08,23,05,44,10.90
2014,08,23,05,45,10.90
2014,08,23,05,46,10.90
2014,08,23,05,47,10.90
2014,08,23,05,48,10.90
2014,08,23,05,49,10.90
2014,08,23,05,50,10.90
2014,08,23,05,51,10.90
2014,08,23,05,52,10.90
2014,08,23,05,53,10.90
2014,08,23,05,54,10.90
2014,08,23,05,55,10.90
2014,08,23,05,56,10.90
2014,08,23,05,57,10.90
2014,08,23,05,58,10.90
2014,08,23,05,59,10.90
2014,08,23,06,00,10.80
2014,08,23,06,01,10.80
2014,08,23,06,02,10.80
2014,08,23,06,03,10.80
2014,08,23,06,04,10.80
2014,08,23,06,05,10.80
2014,08,23,06,06,10.80
2014,08,23,06,07,10.80
2014,08,23,06,08,10.80
2014,08,23,06,09,10.90
2014,08,23,06,10,10.90
2014,08,23,06,11,10.90
2014,08,23,06,12,10.90
2014,08,23,06,13,10.90
2014,08,23,06,14,10.90
2014,08,23,06,15,10.90
2014,08,23,06,16,10.90
2014,08,23,06,17,10.90
2014,08,23,06,18,10.90
2014,08,23,06,19,10.90
2014,08,23,06,20,10.90
2014,08,23,06,21,10.90
2014,08,23,06,22,10.90
2014,08,23,06,23,10.90
2014,08,23,06,24,10.90
2014,08,23,06,25,10.90
2014,08,23,06,26,10.90
2014,08,23,06,27,10.90
2014,08,23,06,28,10.90
2014,08,23,06,29,10.90
2014,08,23,06,30,10.90
2014,08,23,06,31,10.90
2014,08,23,06,32,10.90
2014,08,23,06,33,10.90
2014,08,23,06,34,10.90
2014,08,23,06,35,10.90
2014,08,23,06,36,10.90
2014,08,23,06,37,10.90
2014,08,23,06,38,10.90
2014,08,23,06,39,10.90
2014,08,23,06,40,10.90
2014,08,23,06,41,10.90
2014,08,23,06,42,10.90
2014,08,23,06,43,10.90
2014,08,23,06,44,10.90
2014,08,23,06,45,10.90
2014,08,23,06,46,10.90
2014,08,23,06,47,10.90
2014,08,23,06,48,10.90
2014,08,23,06,49,11.00
2014,08,23,06,50,11.10
2014,08,23,06,51,11.10
2014,08,23,06,52,11.10
2014,08,23,06,53,11.10
2014,08,23,06,54,11.10
2014,08,23,06,55,11.10
2014,08,23,06,56,11.10
2014,08,23,06,57,11.20
2014,08,23,06,58,11.20
2014,08,23,06,59,11.20
2014,08,23,07,00,11.20
2014,08,23,07,01,11.20
2014,08,23,07,02,11.20
2014,08,23,07,03,11.30
2014,08,23,07,04,11.30
2014,08,23,07,05,11.30
2014,08,23,07,06,11.30
2014,08,23,07,07,11.30
2014,08,23,07,08,11.40
2014,08,23,07,09,11.40
2014,08,23,07,10,11.40
2014,08,23,07,11,11.40
2014,08,23,07,12,11.40
2014,08,23,07,13,11.50
2014,08,23,07,14,11.60
2014,08,23,07,15,11.60
2014,08,23,07,16,11.60
2014,08,23,07,17,11.60
2014,08,23,07,18,11.70
2014,08,23,07,19,11.70
2014,08,23,07,20,11.70
2014,08,23,07,21,11.70
2014,08,23,07,22,11.70
2014,08,23,07,23,11.70
2014,08,23,07,24,11.80
2014,08,23,07,25,11.80
2014,08,23,07,26,11.80
2014,08,23,07,27,11.80
2014,08,23,07,28,11.90
2014,08,23,07,29,11.90
2014,08,23,07,30,12.00
2014,08,23,07,31,12.10
2014,08,23,07,32,12.10
2014,08,23,07,33,12.20
2014,08,23,07,34,12.30
2014,08,23,07,35,12.40
2014,08,23,07,36,12.40
2014,08,23,07,37,12.50
2014,08,23,07,38,12.50
2014,08,23,07,39,12.60
2014,08,23,07,40,12.60
2014,08,23,07,41,12.70
2014,08,23,07,42,12.70
2014,08,23,07,43,12.80
2014,08,23,07,44,12.80
2014,08,23,07,45,12.80
2014,08,23,07,46,12.80
2014,08,23,07,47,12.80
2014,08,23,07,48,12.80
2014,08,23,07,49,12.80
2014,08,23,07,50,12.90
2014,08,23,07,51,13.00
2014,08,23,07,52,13.10
2014,08,23,07,53,13.20
2014,08,23,07,54,13.30
2014,08,23,07,55,13.30
2014,08,23,07,56,13.40
2014,08,23,07,57,13.50
2014,08,23,07,58,13.60
2014,08,23,07,59,13.70
2014,08,23,08,00,13.70
2014,08,23,08,01,13.70
2014,08,23,08,02,13.80
2014,08,23,08,03,13.90
2014,08,23,08,04,13.90
2014,08,23,08,05,14.00
2014,08,23,08,06,14.00
2014,08,23,08,07,14.00
2014,08,23,08,08,14.10
2014,08,23,08,09,14.10
2014,08,23,08,10,14.10
2014,08,23,08,11,14.10
2014,08,23,08,12,14.20
2014,08,23,08,13,14.20
2014,08,23,08,14,14.20
2014,08,23,08,15,14.30
2014,08,23,08,16,14.30
2014,08,23,08,17,14.40
2014,08,23,08,18,14.50
2014,08,23,08,19,14.60
2014,08,23,08,20,14.70
2014,08,23,08,21,14.80
2014,08,23,08,22,14.90
2014,08,23,08,23,15.00
2014,08,23,08,24,15.10
2014,08,23,08,25,15.20
2014,08,23,08,26,15.20
2014,08,23,08,27,15.30
2014,08,23,08,28,15.30
2014,08,23,08,29,15.30
2014,08,23,08,30,15.40
2014,08,23,08,31,15.50
2014,08,23,08,32,15.60
2014,08,23,08,33,15.70
2014,08,23,08,34,15.80
2014,08,23,08,35,15.90
2014,08,23,08,36,16.10
2014,08,23,08,37,16.20
2014,08,23,08,38,16.30
2014,08,23,08,39,16.40
2014,08,23,08,40,16.40
2014,08,23,08,41,16.60
2014,08,23,08,42,16.70
2014,08,23,08,43,16.70
2014,08,23,08,44,16.80
2014,08,23,08,45,16.90
2014,08,23,08,46,16.90
2014,08,23,08,47,17.00
2014,08,23,08,48,17.10
2014,08,23,08,49,17.10
2014,08,23,08,50,17.20
2014,08,23,08,51,17.30
2014,08,23,08,52,17.30
2014,08,23,08,53,17.30
2014,08,23,08,54,17.30
2014,08,23,08,55,17.30
2014,08,23,08,56,17.30
2014,08,23,08,57,17.40
2014,08,23,08,58,17.50
2014,08,23,08,59,17.50
2014,08,23,09,00,17.60
2014,08,23,09,01,17.70
2014,08,23,09,02,17.80
2014,08,23,09,03,17.90
2014,08,23,09,04,17.90
2014,08,23,09,05,18.00
2014,08,23,09,06,18.10
2014,08,23,09,07,18.10
2014,08,23,09,08,18.20
2014,08,23,09,09,18.30
2014,08,23,09,10,18.30
2014,08,23,09,11,18.30
2014,08,23,09,12,18.40
2014,08,23,09,13,18.40
2014,08,23,09,14,18.40
2014,08,23,09,15,18.40
2014,08,23,09,16,18.40
2014,08,23,09,17,18.50
2014,08,23,09,18,18.50
2014,08,23,09,19,18.50
2014,08,23,09,20,18.40
2014,08,23,09,21,18.40
2014,08,23,09,22,18.50
2014,08,23,09,23,18.40
2014,08,23,09,24,18.30
2014,08,23,09,25,18.30
2014,08,23,09,26,18.30
2014,08,23,09,27,18.40
2014,08,23,09,28,18.40
2014,08,23,09,29,18.40
2014,08,23,09,30,18.50
2014,08,23,09,31,18.50
2014,08,23,09,32,18.60
2014,08,23,09,33,18.70
2014,08,23,09,34,18.80
2014,08,23,09,35,18.90
2014,08,23,09,36,18.90
2014,08,23,09,37,18.80
2014,08,23,09,38,18.80
2014,08,23,09,39,18.90
2014,08,23,09,40,18.80
2014,08,23,09,41,18.70
2014,08,23,09,42,18.70
2014,08,23,09,43,18.70
2014,08,23,09,44,18.80
2014,08,23,09,45,18.80
2014,08,23,09,46,18.90
2014,08,23,09,47,18.90
2014,08,23,09,48,19.00
2014,08,23,09,49,19.10
2014,08,23,09,50,19.20
2014,08,23,09,51,19.30
2014,08,23,09,52,19.40
2014,08,23,09,53,19.50
2014,08,23,09,54,19.60
2014,08,23,09,55,19.60
2014,08,23,09,56,19.70
2014,08,23,09,57,19.80
2014,08,23,09,58,19.80
2014,08,23,09,59,19.90
2014,08,23,10,00,19.90
2014,08,23,10,01,19.90
2014,08,23,10,02,19.90
2014,08,23,10,03,19.80
2014,08,23,10,04,19.60
2014,08,23,10,05,19.60
2014,08,23,10,06,19.50
2014,08,23,10,07,19.60
2014,08,23,10,08,19.60
2014,08,23,10,09,19.80
2014,08,23,10,10,19.80
2014,08,23,10,11,19.90
2014,08,23,10,12,20.00
2014,08,23,10,13,20.10
2014,08,23,10,14,20.20
2014,08,23,10,15,20.20
2014,08,23,10,16,20.20
2014,08,23,10,17,20.30
2014,08,23,10,18,20.40
2014,08,23,10,19,20.40
2014,08,23,10,20,20.40
2014,08,23,10,21,20.50
2014,08,23,10,22,20.60
2014,08,23,10,23,20.60
2014,08,23,10,24,20.70
2014,08,23,10,25,20.70
2014,08,23,10,26,20.60
2014,08,23,10,27,20.50
2014,08,23,10,28,20.50
2014,08,23,10,29,20.30
2014,08,23,10,30,20.20
2014,08,23,10,31,20.30
2014,08,23,10,32,20.40
2014,08,23,10,33,20.50
2014,08,23,10,34,20.70
2014,08,23,10,35,20.80
2014,08,23,10,36,20.90
2014,08,23,10,37,21.00
2014,08,23,10,38,21.10
2014,08,23,10,39,21.30
2014,08,23,10,40,21.40
2014,08,23,10,41,21.50
2014,08,23,10,42,21.60
2014,08,23,10,43,21.60
2014,08,23,10,44,21.60
2014,08,23,10,45,21.60
2014,08,23,10,46,21.60
2014,08,23,10,47,21.50
2014,08,23,10,48,21.60
2014,08,23,10,49,21.60
2014,08,23,10,50,21.60
2014,08,23,10,51,21.60
2014,08,23,10,52,21.60
2014,08,23,10,53,21.60
2014,08,23,10,54,21.60
2014,08,23,10,55,21.60
2014,08,23,10,56,21.60
2014,08,23,10,57,21.50
2014,08,23,10,58,21.40
2014,08,23,10,59,21.30
2014,08,23,11,00,21.30
2014,08,23,11,01,21.20
2014,08,23,11,02,21.20
2014,08,23,11,03,21.30
2014,08,23,11,04,21.30
2014,08,23,11,05,21.50
2014,08,23,11,06,21.60
2014,08,23,11,07,21.60
2014,08,23,11,08,21.70
2014,08,23,11,09,21.80
2014,08,23,11,10,21.90
2014,08,23,11,11,22.10
2014,08,23,11,12,22.20
2014,08,23,11,13,22.30
2014,08,23,11,14,22.40
2014,08,23,11,15,22.40
2014,08,23,11,16,22.30
2014,08,23,11,17,22.30
2014,08,23,11,18,22.20
2014,08,23,11,19,22.10
2014,08,23,11,20,22.00
2014,08,23,11,21,21.90
2014,08,23,11,22,22.00
2014,08,23,11,23,22.00
2014,08,23,11,24,22.00
2014,08,23,11,25,22.10
2014,08,23,11,26,22.10
2014,08,23,11,27,22.10
2014,08,23,11,28,22.10
2014,08,23,11,29,22.10
2014,08,23,11,30,22.20
2014,08,23,11,31,22.20
2014,08,23,11,32,22.20
2014,08,23,11,33,22.00
2014,08,23,11,34,21.90
2014,08,23,11,35,21.70
2014,08,23,11,36,21.60
2014,08,23,11,37,21.70
2014,08,23,11,38,21.80
2014,08,23,11,39,22.00
2014,08,23,11,40,22.10
2014,08,23,11,41,22.30
2014,08,23,11,42,22.50
2014,08,23,11,43,22.60
2014,08,23,11,44,22.60
2014,08,23,11,45,22.50
2014,08,23,11,46,22.60
2014,08,23,11,47,22.50
2014,08,23,11,48,22.40
2014,08,23,11,49,22.40
2014,08,23,11,50,22.40
2014,08,23,11,51,22.30
2014,08,23,11,52,22.40
2014,08,23,11,53,22.50
2014,08,23,11,54,22.50
2014,08,23,11,55,22.50
2014,08,23,11,56,22.60
2014,08,23,11,57,22.60
2014,08,23,11,58,22.70
2014,08,23,11,59,22.80
2014,08,23,12,00,22.90
2014,08,23,12,01,22.90
2014,08,23,12,02,22.90
2014,08,23,12,03,23.00
2014,08,23,12,04,23.10
2014,08,23,12,05,23.20
2014,08,23,12,06,23.20
2014,08,23,12,07,23.30
2014,08,23,12,08,23.30
2014,08,23,12,09,23.50
2014,08,23,12,10,23.60
2014,08,23,12,11,23.70
2014,08,23,12,12,23.80
2014,08,23,12,13,24.00
2014,08,23,12,14,24.10
2014,08,23,12,15,24.10
2014,08,23,12,16,24.20
2014,08,23,12,17,24.30
2014,08,23,12,18,24.30
2014,08,23,12,19,24.20
2014,08,23,12,20,24.20
2014,08,23,12,21,24.30
2014,08,23,12,22,24.30
2014,08,23,12,23,24.20
2014,08,23,12,24,24.30
2014,08,23,12,25,24.30
2014,08,23,12,26,24.40
2014,08,23,12,27,24.40
2014,08,23,12,28,24.50
2014,08,23,12,29,24.50
2014,08,23,12,30,24.50
2014,08,23,12,31,24.60
2014,08,23,12,32,24.60
2014,08,23,12,33,24.60
2014,08,23,12,34,24.50
2014,08,23,12,35,24.30
2014,08,23,12,36,24.10
2014,08,23,12,37,23.90
2014,08,23,12,38,23.70
2014,08,23,12,39,23.60
2014,08,23,12,40,23.50
2014,08,23,12,41,23.40
2014,08,23,12,42,23.30
2014,08,23,12,43,23.40
2014,08,23,12,44,23.40
2014,08,23,12,45,23.50
2014,08,23,12,46,23.70
2014,08,23,12,47,23.70
2014,08,23,12,48,23.70
2014,08,23,12,49,23.70
2014,08,23,12,50,23.80
2014,08,23,12,51,23.90
2014,08,23,12,52,24.10
2014,08,23,12,53,24.20
2014,08,23,12,54,24.30
2014,08,23,12,55,24.40
2014,08,23,12,56,24.50
2014,08,23,12,57,24.50
2014,08,23,12,58,24.50
2014,08,23,12,59,24.50
2014,08,23,13,00,24.60
2014,08,23,13,01,24.70
2014,08,23,13,02,24.70
2014,08,23,13,03,24.80
2014,08,23,13,04,24.80
2014,08,23,13,05,24.70
2014,08,23,13,06,24.70
2014,08,23,13,07,24.80
2014,08,23,13,08,24.90
2014,08,23,13,09,25.00
2014,08,23,13,10,25.00
2014,08,23,13,11,24.90
2014,08,23,13,12,24.90
2014,08,23,13,13,24.80
2014,08,23,13,14,24.90
2014,08,23,13,15,24.90
2014,08,23,13,16,25.00
2014,08,23,13,17,25.20
2014,08,23,13,18,25.10
2014,08,23,13,19,24.90
2014,08,23,13,20,24.70
2014,08,23,13,21,24.60
2014,08,23,13,22,24.60
2014,08,23,13,23,24.60
2014,08,23,13,24,24.60
2014,08,23,13,25,24.70
2014,08,23,13,26,24.80
2014,08,23,13,27,24.90
2014,08,23,13,28,24.90
2014,08,23,13,29,24.90
2014,08,23,13,30,24.90
2014,08,23,13,31,25.00
2014,08,23,13,32,25.10
2014,08,23,13,33,25.20
2014,08,23,13,34,25.30
2014,08,23,13,35,25.40
2014,08,23,13,36,25.50
2014,08,23,13,37,25.60
2014,08,23,13,38,25.70
2014,08,23,13,39,25.70
2014,08,23,13,40,25.70
2014,08,23,13,41,25.60
2014,08,23,13,42,25.20
2014,08,23,13,43,24.80
2014,08,23,13,44,24.60
2014,08,23,13,45,24.50
2014,08,23,13,46,24.40
2014,08,23,13,47,24.20
2014,08,23,13,48,24.00
2014,08,23,13,49,23.90
2014,08,23,13,50,23.70
2014,08,23,13,51,23.70
2014,08,23,13,52,23.60
2014,08,23,13,53,23.40
2014,08,23,13,54,23.30
2014,08,23,13,55,23.30
2014,08,23,13,56,23.10
2014,08,23,13,57,23.10
2014,08,23,13,58,23.00
2014,08,23,13,59,22.90
2014,08,23,14,00,22.90
2014,08,23,14,01,22.80
2014,08,23,14,02,22.80
2014,08,23,14,03,22.80
2014,08,23,14,04,22.60
2014,08,23,14,05,22.60
2014,08,23,14,06,22.50
2014,08,23,14,07,22.30
2014,08,23,14,08,22.30
2014,08,23,14,09,22.30
2014,08,23,14,10,22.30
2014,08,23,14,11,22.30
2014,08,23,14,12,22.30
2014,08,23,14,13,22.40
2014,08,23,14,14,22.40
2014,08,23,14,15,22.50
2014,08,23,14,16,22.50
2014,08,23,14,17,22.50
2014,08,23,14,18,22.40
2014,08,23,14,19,22.30
2014,08,23,14,20,22.20
2014,08,23,14,21,22.20
2014,08,23,14,22,22.30
2014,08,23,14,23,22.20
2014,08,23,14,24,22.00
2014,08,23,14,25,21.90
2014,08,23,14,26,21.80
2014,08,23,14,27,21.70
2014,08,23,14,28,21.70
2014,08,23,14,29,21.70
2014,08,23,14,30,21.80
2014,08,23,14,31,21.80
2014,08,23,14,32,21.70
2014,08,23,14,33,21.60
2014,08,23,14,34,21.50
2014,08,23,14,35,21.40
2014,08,23,14,36,21.30
2014,08,23,14,37,21.30
2014,08,23,14,38,21.30
2014,08,23,14,39,21.40
2014,08,23,14,40,21.50
2014,08,23,14,41,21.60
2014,08,23,14,42,21.70
2014,08,23,14,43,21.80
2014,08,23,14,44,21.70
2014,08,23,14,45,21.70
2014,08,23,14,46,21.60
2014,08,23,14,47,21.60
2014,08,23,14,48,21.60
2014,08,23,14,49,21.60
2014,08,23,14,50,21.60
2014,08,23,14,51,21.60
2014,08,23,14,52,21.70
2014,08,23,14,53,21.70
2014,08,23,14,54,21.70
2014,08,23,14,55,21.60
2014,08,23,14,56,21.70
2014,08,23,14,57,21.70
2014,08,23,14,58,21.70
2014,08,23,14,59,21.70
2014,08,23,15,00,21.70
2014,08,23,15,01,21.60
2014,08,23,15,02,21.70
2014,08,23,15,03,21.80
2014,08,23,15,04,21.80
2014,08,23,15,05,21.80
2014,08,23,15,06,21.80
2014,08,23,15,07,21.80
2014,08,23,15,08,21.80
2014,08,23,15,09,21.80
2014,08,23,15,10,21.70
2014,08,23,15,11,21.70
2014,08,23,15,12,21.60
2014,08,23,15,13,21.60
2014,08,23,15,14,21.60
2014,08,23,15,15,21.50
2014,08,23,15,16,21.40
2014,08,23,15,17,21.50
2014,08,23,15,18,21.60
2014,08,23,15,19,21.70
2014,08,23,15,20,21.80
2014,08,23,15,21,21.90
2014,08,23,15,22,21.90
2014,08,23,15,23,22.00
2014,08,23,15,24,22.10
2014,08,23,15,25,22.10
2014,08,23,15,26,22.10
2014,08,23,15,27,22.10
2014,08,23,15,28,22.10
2014,08,23,15,29,22.20
2014,08,23,15,30,22.10
2014,08,23,15,31,22.10
2014,08,23,15,32,22.00
2014,08,23,15,33,22.00
2014,08,23,15,34,22.00
2014,08,23,15,35,22.00
2014,08,23,15,36,22.10
2014,08,23,15,37,22.20
2014,08,23,15,38,22.30
2014,08,23,15,39,22.40
2014,08,23,15,40,22.50
2014,08,23,15,41,22.50
2014,08,23,15,42,22.60
2014,08,23,15,43,22.60
2014,08,23,15,44,22.70
2014,08,23,15,45,22.80
2014,08,23,15,46,22.80
2014,08,23,15,47,22.80
2014,08,23,15,48,22.70
2014,08,23,15,49,22.60
2014,08,23,15,50,22.50
2014,08,23,15,51,22.40
2014,08,23,15,52,22.40
2014,08,23,15,53,22.30
2014,08,23,15,54,22.40
2014,08,23,15,55,22.40
2014,08,23,15,56,22.50
2014,08,23,15,57,22.50
2014,08,23,15,58,22.40
2014,08,23,15,59,22.40
2014,08,23,16,00,22.40
2014,08,23,16,01,22.50
2014,08,23,16,02,22.50
2014,08,23,16,03,22.60
2014,08,23,16,04,22.70
2014,08,23,16,05,22.70
2014,08,23,16,06,22.70
2014,08,23,16,07,22.70
2014,08,23,16,08,22.70
2014,08,23,16,09,22.80
2014,08,23,16,10,22.80
2014,08,23,16,11,22.80
2014,08,23,16,12,22.80
2014,08,23,16,13,22.80
2014,08,23,16,14,22.80
2014,08,23,16,15,22.70
2014,08,23,16,16,22.70
2014,08,23,16,17,22.70
2014,08,23,16,18,22.60
2014,08,23,16,19,22.60
2014,08,23,16,20,22.60
2014,08,23,16,21,22.70
2014,08,23,16,22,22.80
2014,08,23,16,23,22.80
2014,08,23,16,24,22.80
2014,08,23,16,25,22.80
2014,08,23,16,26,22.80
2014,08,23,16,27,22.80
2014,08,23,16,28,22.90
2014,08,23,16,29,22.90
2014,08,23,16,30,22.90
2014,08,23,16,31,22.90
2014,08,23,16,32,22.80
2014,08,23,16,33,22.80
2014,08,23,16,34,22.80
2014,08,23,16,35,22.70
2014,08,23,16,36,22.70
2014,08,23,16,37,22.70
2014,08,23,16,38,22.60
2014,08,23,16,39,22.60
2014,08,23,16,40,22.50
2014,08,23,16,41,22.50
2014,08,23,16,42,22.40
2014,08,23,16,43,22.40
2014,08,23,16,44,22.40
2014,08,23,16,45,22.40
2014,08,23,16,46,22.40
2014,08,23,16,47,22.40
2014,08,23,16,48,22.50
2014,08,23,16,49,22.40
2014,08,23,16,50,22.40
2014,08,23,16,51,22.30
2014,08,23,16,52,22.30
2014,08,23,16,53,22.30
2014,08,23,16,54,22.30
2014,08,23,16,55,22.30
2014,08,23,16,56,22.30
2014,08,23,16,57,22.40
2014,08,23,16,58,22.40
2014,08,23,16,59,22.40
2014,08,23,17,00,22.30
2014,08,23,17,01,22.30
2014,08,23,17,02,22.30
2014,08,23,17,03,22.30
2014,08,23,17,04,22.20
2014,08,23,17,05,22.20
2014,08,23,17,06,22.20
2014,08,23,17,07,22.30
2014,08,23,17,08,22.30
2014,08,23,17,09,22.30
2014,08,23,17,10,22.40
2014,08,23,17,11,22.40
2014,08,23,17,12,22.40
2014,08,23,17,13,22.40
2014,08,23,17,14,22.40
2014,08,23,17,15,22.50
2014,08,23,17,16,22.60
2014,08,23,17,17,22.60
2014,08,23,17,18,22.60
2014,08,23,17,19,22.60